Tracking 19908 objects as of 19-Oct-2019
HD Live streaming from Space Station
objects crossing your sky now

DELTA 1 DEB

Track DELTA 1 DEB now!
10-day predictions


NORAD ID: 13575
Int'l Code: 1978-026FN
Perigee: 872.1 km
Apogee: 899.2 km
Inclination: 99.0 °
Period: 102.5 minutes
Semi major axis: 7256 km
RCS: 0.035 m2 (small)
Launch date: March 5, 1978
Source: United States (US)
Launch site: AIR FORCE WESTERN TEST RANGE (AFWTR)

Note: This is SATELLITE DEBRIS
aabbcc
Your satellite tracking list
Your tracking list is empty




NASA's NSSDC Master Catalog

Two Line Element Set (TLE):
1 13575U 78026FN  19291.58718971 -.00000159  00000-0 -71376-4 0  9997
2 13575  99.0401 253.7871 0018658 326.9806  33.0195 14.04427605963531
Source of the keplerian elements: AFSPC